This is the latest recevied weather packets stored in our database for station/object CE3MXM-12. If no packets are shown the sender has not sent any weather packets the latest 10 day(s).
| Time | Temp. | Humidity | Pressure | Rain* | Wind** | Luminosity | Snow |
|---|---|---|---|---|---|---|---|
| 1777300351 | 13.33° C | 57% | 1018.8 hPa | - | - | - | - |
| 1777300051 | 12.78° C | 57% | 1018.8 hPa | - | - | - | - |
| 1777299751 | 12.78° C | 57% | 1018.9 hPa | - | - | - | - |
| 1777299451 | 13.33° C | 56% | 1018.8 hPa | - | - | - | - |
| 1777299151 | 13.33° C | 58% | 1019 hPa | - | - | - | - |
| 1777298851 | 12.78° C | 58% | 1018.8 hPa | - | - | - | - |
| 1777298551 | 13.33° C | 57% | 1018.8 hPa | - | - | - | - |
| 1777298250 | 13.33° C | 57% | 1018.7 hPa | - | - | - | - |
| 1777297950 | 12.78° C | 58% | 1018.8 hPa | - | - | - | - |
| 1777297650 | 12.22° C | 58% | 1018.7 hPa | - | - | - | - |
| 1777297350 | 12.22° C | 60% | 1018.6 hPa | - | - | - | - |
| 1777297050 | 12.22° C | 61% | 1018.7 hPa | - | - | - | - |
| 1777296750 | 11.67° C | 62% | 1018.6 hPa | - | - | - | - |
| 1777296449 | 11.67° C | 63% | 1018.6 hPa | - | - | - | - |
| 1777296149 | 11.11° C | 63% | 1018.3 hPa | - | - | - | - |
| 1777295849 | 11.67° C | 62% | 1018.1 hPa | - | - | - | - |
| 1777295549 | 11.11° C | 64% | 1018.3 hPa | - | - | - | - |
| 1777295250 | 10.56° C | 65% | 1018.2 hPa | - | - | - | - |
| 1777294949 | 10° C | 66% | 1018.1 hPa | - | - | - | - |
| 1777294649 | 10.56° C | 66% | 1018 hPa | - | - | - | - |
| 1777294349 | 10.56° C | 66% | 1018.1 hPa | - | - | - | - |
| 1777294049 | 9.44° C | 68% | 1018.1 hPa | - | - | - | - |
| 1777293749 | 9.44° C | 68% | 1018.1 hPa | - | - | - | - |
| 1777293449 | 9.44° C | 69% | 1018.1 hPa | - | - | - | - |
| 1777293149 | 8.89° C | 70% | 1018.1 hPa | - | - | - | - |
* Rain since midnight (hover to see other rain measurements)
** Current wind speed in m/s (hover to see current wind gust speed)